Probability
1 2 3 3 4 5 6 7 9 8 7 6 3 2 4 6 9 7 4 2 1 0 0 0 1 2 4 6 8 12 16 17 15 16 23 31 34 27 16 9 3 0 0
1 2 2 3 4 5 5 6 5 6 6 5 3 1 2 4 6 6 4 2 1 1 0 0 0 1 3 4 6 9 13 16 16 16 20 27 30 25 18 11 4 0 0
0 1 1 3 3 4 5 3 2 3 4 3 1 1 2 3 4 4 3 2 2 2 1 0 0 0 1 3 4 6 9 12 15 16 16 18 19 19 16 11 4 1 1
0 0 0 1 2 2 2 1 1 2 2 1 1 1 2 3 2 2 2 1 2 2 1 0 0 0 0 2 3 4 5 7 10 10 9 10 11 12 11 8 4 2 2
0 0 0 0 0 0 0 0 1 1 1 0 0 1 2 1 0 0 0 1 3 3 1 0 0 0 0 0 1 1 1 3 4 3 3 6 9 10 9 6 4 3 3
0 0 0 0 0 0 0 0 0 0 1 1 0 0 0 0 0 0 0 1 2 3 1 0 0 0 0 0 0 0 0 1 1 0 1 3 6 9 9 5 4 4 4
0 0 0 0 0 0 0 0 0 1 2 2 1 0 0 0 0 0 0 0 1 2 1 0 0 0 0 0 0 0 0 0 0 0 0 1 3 6 6 3 2 4 5
0 0 0 0 0 0 0 0 0 1 3 2 1 0 0 0 0 0 0 0 0 0 0 0 0 0 0 0 0 0 0 0 0 0 0 0 1 2 2 1 1 3 3
0 0 0 0 0 0 0 0 0 1 2 1 0 0 0 0 0 0 0 0 0 0 0 0 0 0 0 0 0 0 0 0 0 0 0 0 0 0 0 1 1 1 1
0 0 0 0 0 0 0 0 1 1 0 0 0 0 0 0 0 0 0 0 0 0 0 0 0 0 0 0 0 0 0 0 0 0 0 0 0 0 0 0 0 0 0
0 0 0 0 0 0 0 0 0 0 0 0 0 0 0 0 0 0 0 0 0 0 0 0 0 0 0 0 0 0 0 0 0 0 0 0 0 0 0 0 0 0 0
0 0 0 0 0 0 0 0 0 0 0 0 0 0 0 0 0 0 0 0 0 0 0 0 0 0 0 0 0 0 0 0 0 0 0 0 0 0 0 0 0 0 0
0 0 0 0 0 0 0 0 0 0 0 0 0 0 0 0 0 0 0 0 0 0 0 0 0 0 0 0 0 0 0 0 0 0 0 0 0 0 0 0 0 0 0
0 0 0 0 0 0 0 0 0 0 0 0 0 0 0 0 0 0 0 0 0 0 0 0 0 0 0 0 0 0 0 0 0 0 0 0 0 0 0 0 0 0 0
0 0 0 0 0 0 0 0 0 0 0 0 0 0 0 0 0 0 0 0 0 0 0 0 0 0 0 0 0 0 0 0 0 0 0 0 0 0 0 0 0 0 0
0 0 0 0 0 0 0 0 0 0 0 0 0 0 0 0 0 0 0 0 0 0 0 0 0 0 0 0 0 0 0 0 0 0 0 0 0 0 0 0 0 0 0
0 0 0 0 0 0 0 0 0 0 0 0 0 0 0 0 0 0 0 0 0 0 0 0 0 0 0 0 0 0 0 0 0 0 0 0 0 0 0 0 0 0 0
0 0 0 0 0 0 0 0 0 0 0 0 0 0 0 0 0 0 0 0 0 0 0 0 0 0 0 0 0 0 0 0 0 0 0 0 0 0 0 0 0 0 0
0 0 0 0 0 0 0 0 0 0 0 0 0 0 0 0 0 0 0 0 0 0 0 0 0 0 0 0 0 0 0 0 0 0 0 0 0 0 0 0 0 0 0
0 0 0 0 0 0 0 0 0 0 0 0 0 0 0 0 0 0 0 0 0 0 0 0 0 0 0 0 0 0 0 0 0 0 0 0 0 0 0 0 0 0 0
0 0 0 0 0 0 0 0 0 0 0 0 0 0 0 0 0 0 0 0 0 0 0 0 0 0 0 0 0 0 0 0 0 0 0 0 0 0 0 0 0 0 0
0 0 0 0 0 0 0 0 0 0 0 0 0 0 0 0 0 0 0 0 0 0 0 0 0 0 0 0 0 0 0 0 0 0 0 0 0 0 0 0 0 0 0
0 0 0 0 0 0 0 0 0 0 0 0 0 0 0 0 0 0 0 0 0 0 0 0 0 0 0 0 0 0 0 0 0 0 0 0 0 0 0 0 0 0 0
0 0 0 0 0 0 0 0 0 0 0 0 0 0 0 0 0 0 0 0 0 0 0 0 0 0 0 0 0 0 0 0 0 0 0 0 0 0 0 0 0 0 0
0 0 0 0 0 0 0 0 0 0 0 0 0 0 0 0 0 0 0 0 0 0 0 0 0 0 0 0 0 0 0 0 0 0 0 0 0 0 0 0 0 0 0
0 0 0 0 0 0 0 0 0 0 0 0 0 0 0 0 0 0 0 0 0 0 0 0 0 0 0 0 0 0 0 0 0 0 0 0 0 0 0 0 0 0 0
Wind_Speed
6 6 7 6 6 7 7 7 7 7 7 7 7 8 8 8 7 7 8 7 7 6 6 6 6 5 3 2 2 2 2 1 2 2 1 4 5 6 5 6 7 6 5
7 7 7 7 7 8 9 8 8 8 8 9 8 9 9 10 8 8 9 9 8 8 7 7 6 5 6 4 3 3 2 1 2 3 2 3 5 6 6 6 5 6 6
9 8 8 8 8 8 8 8 8 8 8 9 9 9 9 10 9 9 9 9 9 8 8 8 7 7 6 5 5 4 3 3 2 3 3 2 3 5 6 5 5 5 7
9 10 9 9 9 9 9 9 9 9 9 9 9 9 9 10 10 10 10 10 9 9 8 8 7 7 7 6 6 5 4 4 3 4 4 3 3 5 5 6 5 4 4
10 11 10 9 9 9 9 9 9 9 12 9 9 9 9 9 10 10 9 12 10 9 9 8 9 9 10 8 6 6 6 5 4 4 5 4 4 5 6 5 6 5 4
10 11 11 10 10 10 10 10 9 9 9 9 10 10 10 11 10 8 6 8 8 8 9 9 9 9 11 12 11 8 8 7 6 5 5 5 6 5 5 6 6 7 4
10 11 11 11 12 11 13 12 11 10 10 10 11 10 11 11 12 11 9 6 8 8 8 7 10 11 12 10 11 12 10 10 9 6 6 6 5 6 6 7 7 7 5
11 11 11 12 13 12 12 12 11 10 10 10 11 11 10 11 13 12 11 9 8 9 8 8 9 8 7 8 10 10 9 9 10 8 5 5 5 5 6 6 6 5 6
12 12 13 13 14 13 13 12 11 10 10 10 10 10 10 10 11 12 11 7 7 9 9 9 9 9 10 9 8 7 7 7 10 12 10 8 8 7 6 6 7 8 6
13 13 13 13 13 14 13 12 10 9 10 10 10 9 9 9 10 12 11 7 7 7 7 7 10 10 11 12 7 7 7 6 6 7 8 8 8 8 10 9 9 9 7
13 13 13 13 13 13 11 9 9 9 9 9 10 8 8 8 9 12 13 7 6 6 6 6 6 11 12 13 10 6 6 4 4 5 5 6 6 7 8 8 7 8 8
13 14 14 13 13 12 10 10 9 9 9 8 7 7 5 6 7 9 13 12 7 4 4 4 4 9 12 13 9 6 6 4 3 4 5 6 6 6 7 8 8 6 5
13 14 13 14 12 11 10 9 8 7 6 6 5 5 4 3 4 7 11 11 9 5 2 2 4 8 10 9 10 9 7 4 4 4 5 6 6 6 6 6 6 5 5
13 13 12 12 11 9 7 6 6 6 6 5 5 4 4 2 1 2 5 6 7 6 4 3 6 8 6 5 7 7 6 5 5 5 4 4 4 5 5 6 6 7 6
13 12 12 11 9 8 7 5 5 4 3 4 5 5 4 3 3 3 0 2 4 5 6 5 4 5 5 5 6 7 7 7 6 5 4 5 5 5 6 6 7 7 6
12 11 9 9 8 7 7 5 3 2 1 1 2 4 3 3 4 2 3 3 2 3 4 5 5 6 7 7 7 7 7 7 6 6 5 5 6 6 6 7 7 8 8
12 11 9 9 8 7 7 6 4 1 2 1 2 3 2 3 2 2 3 3 2 3 3 5 5 5 6 6 5 6 6 6 5 6 6 6 6 7 7 8 8 8 8
12 11 9 7 7 6 6 6 5 4 2 1 2 1 1 1 1 1 1 1 3 3 5 5 5 5 5 5 5 5 5 5 5 6 5 6 7 7 8 9 9 9 9
11 8 8 8 7 6 6 5 4 4 3 1 2 3 2 2 2 1 2 4 4 4 5 4 4 4 4 4 4 4 4 5 6 6 6 7 7 8 8 9 8 11 9
8 11 10 8 7 6 5 5 4 4 3 2 1 1 3 3 3 4 5 4 3 3 3 3 2 2 2 3 3 3 4 5 6 6 6 7 7 7 9 10 10 10 8
9 10 11 8 5 5 5 5 4 4 3 2 1 2 2 2 1 1 1 2 2 2 1 1 1 1 2 2 3 4 5 5 5 6 6 7 8 8 7 8 9 9 8
9 8 7 7 5 5 5 5 4 3 3 3 1 1 2 3 1 1 0 1 1 1 1 1 1 1 1 2 3 4 5 5 5 6 7 7 8 8 8 8 9 8 8
9 9 7 6 5 5 4 4 3 3 3 2 2 1 1 1 0 0 0 0 0 1 1 1 1 1 2 1 2 3 5 5 6 7 7 8 8 8 8 9 10 9 8
9 8 7 6 5 5 4 4 4 4 3 3 2 1 1 1 1 1 1 1 1 1 1 1 2 3 4 3 3 3 4 5 6 6 9 9 9 8 8 8 9 10 9
7 6 6 6 5 5 5 4 4 4 3 2 2 1 1 1 0 2 2 1 2 2 3 3 3 4 5 5 5 5 6 6 5 5 6 7 9 9 8 9 8 8 8
7 7 5 4 5 5 5 5 4 4 3 3 2 1 0 1 1 2 2 2 2 3 3 3 4 5 5 5 6 7 6 6 5 4 4 5 7 7 8 7 10 9 9
Wind_Direction
314 306 302 298 295 293 291 289 288 286 287 284 277 272 264 256 244 230 226 221 218 218 218 216 221 220 222 227 250 270 277 253 238 245 166 133 124 124 134 129 139 128 106
317 315 311 307 304 300 298 296 297 295 290 287 280 274 269 262 248 238 233 231 220 218 218 216 214 215 213 219 218 231 241 235 217 229 200 162 143 140 146 145 139 124 112
319 316 312 309 306 301 298 295 291 289 285 281 279 277 272 268 263 252 239 233 225 220 218 217 213 209 212 210 208 214 217 223 204 204 216 195 161 151 146 139 124 123 123
318 314 308 304 302 300 299 297 296 292 287 281 275 272 270 267 263 259 251 240 231 225 218 218 216 210 208 206 211 208 206 208 214 211 205 193 179 162 156 149 142 138 132
312 308 307 305 306 304 300 298 294 291 289 287 284 279 272 266 258 251 250 249 237 228 222 218 219 215 210 201 208 201 197 199 207 214 209 196 186 174 177 168 157 143 123
314 312 312 311 307 302 299 295 292 290 287 283 278 275 272 269 270 263 254 263 257 239 227 220 222 220 210 201 205 202 196 200 203 209 214 206 196 188 184 170 158 155 152
315 314 314 312 308 306 305 302 298 295 290 282 276 271 266 262 260 253 241 247 257 248 234 220 225 222 201 195 202 205 208 215 210 206 211 213 202 192 184 179 174 174 154
320 318 316 313 310 308 303 299 298 294 288 281 276 270 265 261 252 243 234 236 243 242 236 223 218 232 223 200 199 202 205 210 208 212 220 217 215 197 188 184 173 144 120
321 320 317 314 310 306 303 301 299 294 288 282 276 269 263 259 246 237 227 232 235 238 233 226 215 214 218 201 199 202 206 213 213 212 209 208 197 185 176 162 162 154 145
322 319 315 311 307 303 300 298 296 292 287 286 279 269 262 256 240 227 218 227 230 234 230 228 220 213 206 196 199 202 209 214 219 209 204 206 199 190 186 184 177 167 151
321 314 311 309 304 298 299 300 298 295 291 286 281 272 261 251 239 221 211 222 224 228 228 219 214 202 199 197 200 203 207 211 214 209 197 197 198 192 190 190 189 177 167
319 314 311 309 306 307 308 305 303 300 297 294 288 281 266 248 237 219 207 215 229 237 229 220 200 186 192 192 194 188 172 181 215 209 200 196 197 194 190 186 187 184 175
319 315 312 310 308 306 306 308 309 308 305 304 299 294 285 260 228 213 204 208 216 232 234 184 174 173 179 191 203 184 173 196 216 219 213 201 196 189 176 169 162 149 133
319 316 314 313 310 311 311 311 311 318 322 322 323 321 314 305 273 196 189 195 201 216 218 182 168 166 184 197 183 188 201 213 213 217 219 197 180 172 167 158 152 142 129
320 318 318 314 312 316 318 322 324 347 339 319 327 331 334 338 359 356 216 183 191 195 183 175 179 176 195 205 197 191 199 206 215 216 204 188 179 170 164 157 152 150 149
320 320 318 315 316 319 320 323 344 329 326 322 324 322 341 19 3 39 89 105 116 137 175 192 197 199 205 208 208 200 199 203 202 198 193 184 179 172 163 159 159 161 159
318 315 314 313 316 321 322 324 321 280 203 243 325 340 350 7 27 66 94 102 110 141 198 207 207 212 219 220 213 206 202 199 191 185 184 181 174 169 166 164 165 163 159
317 313 313 313 316 318 319 322 326 328 311 194 175 239 300 346 16 63 120 169 193 208 225 222 215 216 221 220 215 207 200 189 181 177 179 177 169 168 169 167 167 162 157
317 317 320 316 313 316 317 327 335 339 338 343 143 153 193 199 205 216 217 243 238 214 219 226 224 220 215 213 209 199 190 179 173 171 175 175 168 166 167 164 160 159 156
317 314 310 311 314 320 327 336 340 337 339 343 351 108 164 203 213 193 210 236 256 255 231 213 210 211 210 204 191 188 182 174 172 172 172 170 164 164 165 160 158 158 161
322 319 315 313 320 329 336 336 337 338 337 336 5 52 349 298 291 253 213 224 243 244 241 207 179 198 204 194 192 188 179 172 169 163 160 161 159 159 158 155 156 158 160
316 314 318 325 331 339 334 326 334 338 342 348 342 162 240 271 286 290 259 245 238 192 188 180 194 201 208 196 181 172 166 160 155 154 154 152 153 153 152 154 158 162 162
315 320 323 326 333 328 322 338 339 337 343 341 344 358 274 291 6 70 128 147 174 92 116 147 160 152 131 112 128 150 153 150 151 152 148 149 152 154 157 162 162 160 162
316 324 330 336 346 347 352 349 341 347 0 347 337 333 313 325 27 81 73 74 88 101 122 125 119 119 111 102 102 113 121 127 135 144 147 147 149 154 160 159 158 163 164
322 331 339 343 346 346 347 350 352 349 353 337 326 320 292 299 70 107 111 104 94 99 105 106 104 110 114 111 106 99 94 102 116 132 141 145 152 158 159 159 160 163 162
330 337 341 342 341 339 342 346 352 353 351 349 348 353 19 110 126 125 132 130 114 104 102 104 115 119 123 117 111 108 110 111 116 132 150 155 155 158 159 158 157 157 154